Brocton, IL

3:58 AM CDT on September 25, 2016 (GMT -0500)
Edgar County

Weather History for KPRG - November, 2012

Change the Weather History Date:

Monday, November 12, 2012

  Actual Average (KHUF) Record (KHUF)
Temperature  
Mean Temperature 40 °F 45 °F  
Max Temperature 50 °F 55 °F 74 °F (1956)
Min Temperature 30 °F 35 °F 13 °F (1976)
Degree Days  
Heating Degree Days 25 20  
Month to date heating degree days 215  
Since 1 July heating degree days 642  
Cooling Degree Days 0 0  
Month to date cooling degree days 0  
Year to date cooling degree days 993  
Moisture  
Dew Point 30 °F    
Average Humidity 81    
Maximum Humidity 97    
Minimum Humidity 62    
Precipitation  
Precipitation 0.20 in 0.13 in 0.68 in (2012)
Month to date precipitation 1.51  
Year to date precipitation 39.78  
Sea Level Pressure  
Sea Level Pressure 30.24 in    
Wind  
Wind Speed 14 mph (West)    
Max Wind Speed 22 mph    
Max Gust Speed 28 mph    
Visibility 10 miles    
Events Rain    
T = Trace of Precipitation, MM = Missing Value Source: NWS Daily Summary

Daily Weather History Graph

Daily Weather History Graph

Search for Another Location

Airport or City:

Trip Planner

Search our weather history database for the weather conditions in past years. The results will help you decide how hot, cold, wet, or windy it might be!

Date:

Astronomy

Nov. 12, 2012 Rise Set
Actual Time 6:32 AM CST 4:37 PM CST
Civil Twilight 6:03 AM CST 5:05 PM CST
Nautical Twilight 5:31 AM CST 5:38 PM CST
Astronomical Twilight 4:59 AM CST 6:09 PM CST
Moon 4:57 AM CST (11/12) 3:41 PM CST (11/12)
Length of Visible Light 11h 02m
Length of Day
10h 04m
Waning Crescent, 2% of the Moon is Illuminated
Nov 12
Waning Crescent
Nov 13
New
Nov 20
First Quarter
Nov 28
Full
Dec 6
Last Quarter

Hourly Weather History & Observations

Time (CST) Temp. Windchill Dew Point Humidity Pressure Visibility Wind Dir Wind Speed Gust Speed Precip Events Conditions
12:15 AM 49.6 °F - 48.7 °F 97% 29.98 in 10.0 mi West 9.2 mph - 0.01 in Rain Rain
12:35 AM 50.0 °F - 48.2 °F 94% 29.99 in 10.0 mi West 12.7 mph - N/A Rain Light Rain
12:55 AM 46.6 °F - 45.3 °F 95% 30.00 in 10.0 mi WNW 16.1 mph 23.0 mph 0.04 in   Drizzle
1:15 AM 45.5 °F 38.6 °F 44.2 °F 95% 30.02 in 10.0 mi WNW 16.1 mph - 0.01 in Rain Light Rain
1:35 AM 44.4 °F 38.6 °F 43.2 °F 95% 30.02 in 10.0 mi WNW 11.5 mph - 0.02 in Rain Light Rain
1:55 AM 43.2 °F 36.2 °F 41.9 °F 95% 30.02 in - NW 13.8 mph - 0.03 in   Unknown
2:15 AM 41.9 °F 34.0 °F 40.3 °F 94% 30.05 in - WNW 16.1 mph 25.3 mph N/A   Overcast
2:35 AM 41.0 °F 32.8 °F 39.4 °F 94% 30.05 in - WNW 16.1 mph 23.0 mph 0.02 in   Unknown
2:55 AM 39.7 °F 31.5 °F 38.5 °F 95% 30.05 in - WNW 15.0 mph - 0.03 in   Unknown
3:15 AM 38.8 °F 30.4 °F 37.6 °F 95% 30.08 in - WNW 15.0 mph 19.6 mph 0.01 in   Overcast
3:35 AM 37.8 °F 29.4 °F 36.5 °F 95% 30.09 in - WNW 13.8 mph 21.9 mph 0.02 in   Unknown
3:55 AM 37.4 °F 29.3 °F 35.8 °F 94% 30.07 in 10.0 mi WNW 12.7 mph 20.7 mph 0.03 in Rain Rain
4:15 AM 36.7 °F 27.2 °F 35.1 °F 94% 30.09 in 10.0 mi WNW 16.1 mph 23.0 mph 0.01 in Rain Rain
4:35 AM 36.0 °F 26.7 °F 34.3 °F 94% 30.10 in 10.0 mi WNW 15.0 mph 20.7 mph 0.02 in Rain Light Rain
4:55 AM 35.2 °F 25.0 °F 33.8 °F 94% 30.11 in 10.0 mi WNW 17.3 mph - 0.02 in Rain Light Rain
5:15 AM 34.2 °F 24.8 °F 32.9 °F 95% 30.12 in 10.0 mi West 13.8 mph - N/A Rain Light Rain
5:35 AM 33.4 °F 22.0 °F 32.0 °F 94% 30.11 in 10.0 mi WNW 19.6 mph 25.3 mph 0.01 in Rain Light Rain
5:55 AM 33.6 °F 23.7 °F 31.5 °F 92% 30.12 in 10.0 mi WNW 15.0 mph 24.2 mph 0.01 in   Overcast
6:15 AM 33.1 °F 23.0 °F 30.6 °F 90% 30.16 in 10.0 mi WNW 15.0 mph 26.5 mph 0.01 in   Overcast
6:35 AM 33.8 °F 21.9 °F 30.2 °F 87% 30.16 in 10.0 mi WNW 21.9 mph 26.5 mph N/A   Overcast
6:55 AM 32.4 °F 20.0 °F 29.3 °F 88% 30.19 in 10.0 mi West 21.9 mph 25.3 mph 0.02 in   Overcast
7:15 AM 32.0 °F 20.1 °F 27.5 °F 83% 30.20 in 10.0 mi West 19.6 mph 27.6 mph N/A   Mostly Cloudy
7:35 AM 31.5 °F 19.8 °F 26.4 °F 82% 30.22 in 10.0 mi WNW 18.4 mph 23.0 mph N/A   Scattered Clouds
7:55 AM 30.7 °F 18.1 °F 24.1 °F 76% 30.22 in 10.0 mi WNW 20.7 mph 25.3 mph N/A   Scattered Clouds
8:15 AM 32.0 °F 19.8 °F 26.8 °F 81% 30.23 in 10.0 mi WNW 20.7 mph 24.2 mph N/A   Scattered Clouds
8:35 AM 32.0 °F 20.5 °F 26.8 °F 81% 30.24 in 10.0 mi West 18.4 mph 24.2 mph N/A   Scattered Clouds
8:55 AM 32.0 °F 20.1 °F 27.1 °F 82% 30.24 in 10.0 mi West 19.6 mph - N/A   Mostly Cloudy
9:15 AM 32.0 °F 21.2 °F 27.3 °F 83% 30.24 in 10.0 mi West 16.1 mph 21.9 mph N/A   Mostly Cloudy
9:35 AM 33.8 °F 23.5 °F 27.9 °F 79% 30.25 in 10.0 mi West 16.1 mph - 0.01 in   Scattered Clouds
9:55 AM 33.8 °F 22.5 °F 25.9 °F 73% 30.26 in 10.0 mi West 19.6 mph 27.6 mph 0.01 in   Scattered Clouds
10:15 AM 34.7 °F 24.0 °F 27.5 °F 75% 30.26 in 10.0 mi WNW 18.4 mph 23.0 mph N/A   Clear
10:35 AM 35.2 °F 24.7 °F 27.7 °F 74% 30.27 in 10.0 mi West 18.4 mph - N/A   Clear
10:55 AM 35.6 °F 24.8 °F 28.0 °F 74% 30.27 in 10.0 mi West 19.6 mph 24.2 mph N/A   Clear
11:15 AM 35.8 °F 25.1 °F 27.5 °F 72% 30.27 in 10.0 mi West 19.6 mph - N/A   Clear
11:35 AM 36.7 °F 26.6 °F 27.0 °F 68% 30.27 in 10.0 mi West 18.4 mph - N/A   Clear
11:55 AM 37.0 °F 27.0 °F 27.9 °F 69% 30.27 in 10.0 mi West 18.4 mph 23.0 mph N/A   Clear
12:15 PM 37.2 °F 27.3 °F 27.3 °F 67% 30.26 in 10.0 mi West 18.4 mph 23.0 mph N/A   Clear
12:35 PM 37.4 °F 28.2 °F 27.0 °F 66% 30.26 in 10.0 mi West 16.1 mph 23.0 mph N/A   Clear
12:55 PM 38.1 °F 28.1 °F 27.9 °F 67% 30.26 in 10.0 mi West 19.6 mph 23.0 mph N/A   Clear
1:15 PM 38.3 °F 28.7 °F 28.0 °F 67% 30.27 in 10.0 mi West 18.4 mph 26.5 mph 0.01 in   Clear
1:35 PM 38.7 °F 29.5 °F 27.9 °F 65% 30.27 in 10.0 mi WSW 17.3 mph - 0.01 in   Clear
1:55 PM 39.4 °F 30.7 °F 28.8 °F 66% 30.27 in 10.0 mi West 16.1 mph - 0.01 in   Clear
2:15 PM 39.2 °F 29.6 °F 27.7 °F 63% 30.26 in 10.0 mi West 19.6 mph 25.3 mph N/A   Clear
2:35 PM 39.0 °F 28.8 °F 27.0 °F 62% 30.27 in 10.0 mi West 21.9 mph - N/A   Scattered Clouds
2:55 PM 39.2 °F 29.8 °F 27.0 °F 62% 30.27 in 10.0 mi West 18.4 mph 23.0 mph N/A   Clear
3:15 PM 39.2 °F 31.6 °F 27.5 °F 63% 30.28 in 10.0 mi WSW 12.7 mph 19.6 mph N/A   Clear
3:35 PM 38.7 °F 29.8 °F 27.3 °F 64% 30.29 in 10.0 mi West 16.1 mph 20.7 mph N/A   Clear
3:55 PM 38.3 °F 28.4 °F 26.4 °F 62% 30.30 in 10.0 mi West 19.6 mph 25.3 mph N/A   Scattered Clouds
4:15 PM 37.4 °F 29.3 °F 26.6 °F 65% 30.30 in 10.0 mi West 12.7 mph - N/A   Clear
4:35 PM 36.5 °F 29.7 °F 26.2 °F 66% 30.30 in 10.0 mi West 9.2 mph - N/A   Clear
4:55 PM 35.6 °F 29.2 °F 26.6 °F 70% 30.31 in 10.0 mi West 8.1 mph - N/A   Clear
5:15 PM 34.9 °F 28.3 °F 26.8 °F 72% 30.32 in 10.0 mi WSW 8.1 mph - N/A   Clear
5:35 PM 34.2 °F 27.5 °F 27.1 °F 75% 30.33 in 10.0 mi West 8.1 mph - N/A   Clear
5:55 PM 34.2 °F 28.2 °F 26.6 °F 74% 30.33 in 10.0 mi WSW 6.9 mph - N/A   Clear
6:15 PM 33.8 °F 28.6 °F 27.1 °F 77% 30.34 in 10.0 mi WSW 5.8 mph - N/A   Clear
6:35 PM 32.0 °F 25.6 °F 28.4 °F 87% 30.35 in 10.0 mi SW 6.9 mph - N/A   Clear
6:55 PM 32.0 °F 25.6 °F 28.2 °F 86% 30.35 in 10.0 mi SW 6.9 mph - N/A   Clear
7:15 PM 32.0 °F 25.6 °F 28.4 °F 87% 30.35 in 10.0 mi SW 6.9 mph - N/A   Clear
7:35 PM 32.0 °F 25.6 °F 27.9 °F 85% 30.36 in 10.0 mi SW 6.9 mph - N/A   Clear
7:55 PM 32.2 °F 25.0 °F 27.7 °F 83% 30.37 in 10.0 mi SW 8.1 mph - N/A   Clear
8:15 PM 32.2 °F 25.8 °F 27.9 °F 84% 30.37 in 10.0 mi SW 6.9 mph - N/A   Clear
8:35 PM 32.0 °F 24.8 °F 27.5 °F 83% 30.38 in 10.0 mi SW 8.1 mph - N/A   Clear
8:55 PM 32.2 °F 25.8 °F 27.5 °F 83% 30.38 in 10.0 mi SW 6.9 mph - N/A   Clear
9:15 PM 32.0 °F 26.4 °F 27.5 °F 83% 30.39 in 10.0 mi SW 5.8 mph - N/A   Clear
9:35 PM 31.5 °F 24.9 °F 27.5 °F 85% 30.39 in 10.0 mi SW 6.9 mph - N/A   Clear
9:55 PM 31.1 °F 24.5 °F 27.3 °F 86% 30.40 in 10.0 mi SW 6.9 mph - N/A   Clear
10:15 PM 31.6 °F 26.0 °F 27.3 °F 84% 30.40 in 10.0 mi SW 5.8 mph - N/A   Clear
10:35 PM 31.6 °F 26.0 °F 27.0 °F 83% 30.40 in 10.0 mi SW 5.8 mph - N/A   Clear
10:55 PM 31.6 °F 25.1 °F 27.0 °F 83% 30.40 in 10.0 mi SW 6.9 mph - N/A   Clear
11:15 PM 31.8 °F 25.4 °F 26.6 °F 81% 30.40 in 10.0 mi WSW 6.9 mph - N/A   Clear
11:35 PM 31.6 °F 26.0 °F 26.6 °F 82% 30.41 in 10.0 mi WSW 5.8 mph - N/A   Clear
11:55 PM 31.6 °F 24.4 °F 26.6 °F 82% 30.41 in 10.0 mi WSW 8.1 mph - N/A   Clear